Regional Weather Roundup
Issued by NWS Pendleton, OR

Home | Current Version | Previous Version | Text Only | Print | Product List | Glossary On
Versions: 1 2 3 4 5 6 7 8 9 10 11 12 13 14 15 16 17 18 19 20 21 22 23 24 25 26 27 28 29 30 31 32 33 34 35 36 37 38 39 40 41 42 43 44 45 46 47 48 49 50
000
ASUS46 KPDT 292225
RWRPDT
PENDLETON REGIONAL WEATHER ROUNDUP
NATIONAL WEATHER SERVICE PENDLETON OREGON
200 PM PST THU JAN 29 2015

NOTE: FAIR INDICATES FEW OR NO CLOUDS BELOW 12,000 FEET WITH NO
SIGNIFICANT WEATHER AND/OR OBSTRUCTIONS TO VISIBILITY.

# INDICATES UNOFFICIAL STATION AND DATA

WAZ520-292310-
EAST SLOPES OF WASHINGTON CASCADES

CITY            SKY/WX      TMP DP  RH  WIND    PRES   REMARKS
#BUMPING DAM    N/A         43  N/A N/A N3      N/A
#CLE ELUM HS    N/A         32  30  92  SE3     30.30F
#CLE ELUM LAKE  N/A         33  31  92  CALM    30.39F
#CLIFFDEL 2NW   N/A         48  35  60  CALM    N/A
#GLENWOOD       N/A         36  35  96  CALM    30.40F
#MANASTASH CYN  N/A         32  27  82  CALM    30.28F
#NELSON         N/A         32  31  96  CALM    30.45F
#NELSON 3SW     N/A         30  29  96  CALM    30.65F
#NILE           N/A         33  32  96  NE1     29.66F
#RONALD 2NW     N/A         33  25  72  CALM    30.17F
#SNOWDEN        N/A         32  29  89  CALM    N/A
#TEANAWAY 4NE   N/A         34  32  92  CALM    N/A
#TROUT LAKE 1NE N/A         35  33  92  CALM    30.40F
$$

WAZ521-292310-
SIMCOE HIGHLANDS

CITY            SKY/WX      TMP DP  RH  WIND    PRES   REMARKS
#BICKLETON HS   N/A         33  32  96  E1      N/A
#CENTERVILLE 4W N/A         37  35  92  E3      30.10F
#CENTERVILLE 1SWN/A         34  32  92  E3      30.41F
#GOLDENDALE     N/A         36  34  92  E1      N/A
#GOLDENDALE 1NE N/A         36  29  75  E2      N/A
#GOLDENDALE 1S  N/A         33  33  100 CALM    30.33F
#GOLDENDALE 5WNWN/A         36  33  89  CALM    30.41F
#GOODNOE HILLS  N/A         36  32  85  E5      N/A
#LYLE 6NE       N/A         37  35  92  CALM    30.40F
$$

WAZ026-292310-
KITTITAS VALLEY

CITY            SKY/WX      TMP DP  RH  WIND    PRES   REMARKS
ELLENSBURG AP   CLOUDY      37  32  82  NW3     30.38F
#ELLENSBURG CWU N/A         34  32  92  N2      30.40F
#ELLENSBURG 3NE N/A         33  32  96  N1      30.37F
#ELLENSBURG 1E  N/A         33  30  89  CALM    N/A
#KITTITAS 4N    N/A         37  34  89  CALM    28.67F
#THORP 6N       N/A         30  29  96  E5      30.46F
$$

WAZ027-292310-
YAKIMA VALLEY

CITY            SKY/WX      TMP DP  RH  WIND    PRES   REMARKS
SUNNYSIDE AP    CLOUDY      36  34  92  SW6     30.44F
YAKIMA AIRPORT  CLOUDY      38  33  82  CALM    30.42F
YAKIMA-VAGABOND CLOUDY      36  33  89  SW3     30.40F
#DONALD 2NE     N/A         36  35  96  CALM    29.26F
#GRANDVIEW      N/A         35  33  92  W1      30.48F
#MABTON         N/A         37  36  96  SW1     30.44F
#MOXEE 2E       N/A         39  31  73  CALM    30.36F
#NACHES 2SW     N/A         34  33  96  E1      30.38F
#OUTLOOK DOT    N/A         N/A N/A N/A S1      N/A
#SELAH 8E       N/A         35  35  100 W3      N/A
#TERRACE HTS    N/A         35  33  92  CALM    30.44F
#TOPPENISH      N/A         36  35  96  CALM    30.38F
#WAPATO 4NE     N/A         36  35  96  CALM    29.26F
#WEST VALLEY    N/A         35  33  92  S1      30.45F
#W YAKIMA       N/A         35  34  96  S1      30.47F
#WHITE SWAN 5E  N/A         36  35  96  CALM    30.48F
#WILEY CITY 3W  N/A         33  28  82  CALM    30.44F
$$

WAZ028-292310-
LOWER COLUMBIA BASIN...WASHINGTON

CITY            SKY/WX      TMP DP  RH  WIND    PRES   REMARKS
HANFORD         CLOUDY      39  34  82  NW6     30.45F
PASCO           CLOUDY      40  37  89  NW7     30.46F
PROSSER AWOS    N/A         37  37  100 SW5     30.47F
#BASIN CITY 5SW N/A         39  37  92  NW1     30.44F
#BENTON CITY    N/A         38  35  89  W6      30.37F
#CONNELL 5N     N/A         36  34  92  CALM    30.45F
#CONNELL 5NW    N/A         36  35  96  CALM    30.41F
#ELTOPIA 6NW    N/A         37  36  96  N3      29.38F
#KAHLOTUS       N/A         36  36  100 CALM    30.45F
#PATERSON       N/A         39  36  89  CALM    30.45F
#PROSSER        N/A         36  35  96  W2      30.46F
#SAGEMOOR 2W    N/A         38  36  92  NW1     30.31F
#TOUCHET 2S     N/A         38  37  96  CALM    30.45F
#WEST PASCO     N/A         41  37  86  NW1     30.44F
$$

WAZ029-292310-
FOOTHILLS OF THE BLUES...WASHINGTON

CITY            SKY/WX      TMP DP  RH  WIND    PRES   REMARKS
WALLA WALLA AP  CLOUDY      36  33  89  CALM    30.41F
#DAYTON SCHOOL  N/A         37  31  79  W1      30.38F
#LOWDEN 2SE     N/A         38  36  92  E1      30.41F
#PLEASANT VIEW 1N/A         34  33  96  CALM    30.49F
#PRESCOTT       N/A         37  36  96  CALM    30.45F
#SUDBURY        N/A         42  N/A N/A CALM    N/A
#WHITMAN COLLEGEN/A         36  34  92  S1      30.51F
#WAITSBURG 5S   N/A         33  33  100 CALM    30.55F
#WAITSBURG 8N   N/A         36  30  79  S3      30.24S
#WALLA WALLA 5E N/A         37  36  96  W5      N/A
#WALLA WALLA U  N/A         38  36  92  CALM    30.46F
#WHITMAN MISSIONN/A         38  37  96  CALM    30.47F
$$

WAZ030-292310-
BLUE MOUNTAINS...WASHINGTON

CITY            SKY/WX      TMP DP  RH  WIND    PRES   REMARKS
#DIXIE 5SE      N/A         34  34  100 CALM    30.26F
#SKI BLUEWOOD   N/A         47  33  58  SW1     30.27F
$$

ORZ009-041-WAZ024-292310-
COLUMBIA RIVER GORGE

CITY            SKY/WX      TMP DP  RH  WIND    PRES   REMARKS
HOOD RIVER AP   CLOUDY      41  34  76  E5      30.42F
THE DALLES AP   CLOUDY      43  35  73  E10     30.43F
#ARLINGTON AIRPON/A         38  36  92  E1      30.02S
#ARLINGTON HS   N/A         40  35  82  E3      30.37F
#CELILO DOT     N/A         42  32  67  NE1     N/A
#LYLE           N/A         43  37  79  SE7     30.45F
#MOSIER 1S      N/A         42  29  60  CALM    30.41F
#MURDOCK        N/A         44  38  79  E3      30.46F
#RUFUS DOT      N/A         41  35  79  CALM    N/A

$$

ORZ510-292310-
NORTH CENTRAL OREGON

CITY            SKY/WX      TMP DP  RH  WIND    PRES   REMARKS
#CHENOWITH 1W   N/A         35  35  100 E9      N/A
#COW CYN RST AREN/A         36  36  100 N2      N/A
#DUFUR 9E       N/A         32  32  100 E7      30.47F
#GRASS VALLEY 1SN/A         34  33  96  E2      30.45F
#KENT DOT       N/A         34  31  89  E6      N/A
#MAUPIN SCHOOL  N/A         42  35  76  CALM    30.40F
#MORO SCHOOL    N/A         34  34  100 CALM    30.37F
#SHANIKO 5WSW   N/A         34  31  89  NW6     N/A
#SHANIKO 4NW    N/A         34  34  100 N5      30.30F
#TYGH VALLEY 2NEN/A         41  36  82  N1      30.40F
#WAPANITIA AIRPON/A         37  35  92  CALM    30.42F
#WASCO DOT      N/A         37  34  89  E6      N/A
#WASCO AIRPORT  N/A         36  34  92  E12     N/A    WCI 28
#WASCO 5NE      N/A         34  33  96  CALM    30.45F
$$

ORZ511-292310-
CENTRAL OREGON

CITY            SKY/WX      TMP DP  RH  WIND    PRES   REMARKS
BEND AIRPORT    CLOUDY      41  37  86  N3      30.29F
MADRAS AIRPORT  N/A         39  37  92  NE5     30.35F
PRINEVILLE AP   MOCLDY      43  39  86  W7      30.29F
REDMOND AIRPORT CLOUDY      40  37  89  N6      30.29F
#BEND 1SW       N/A         42  38  86  SE1     N/A
#BEND-AWBREY    N/A         41  40  96  CALM    30.31F
#BEND-KIM LN    N/A         43  39  86  CALM    30.25F
#CROOKED RVR RANN/A         39  38  96  N3      30.34F
#CULVER         N/A         38  36  92  CALM    30.28F
#LAKE BILLY CHINN/A         40  29  64  N3      30.37F
#POWELL BUTTE 3EN/A         40  38  92  NW5     N/A
#POWELL BUTTE   N/A         42  38  86  CALM    29.89F
#PRINEVILLE 3N  N/A         45  40  82  SW2     30.28F
#WARM SPRINGS   N/A         45  38  76  CALM    30.32F

$$


ORZ509-292310-
EAST SLOPES OF OREGON CASCADES

CITY            SKY/WX      TMP DP  RH  WIND    PRES   REMARKS
#BLUE BOX PASS  N/A         43  -8  11  S1      N/A
#CAMP SHERMAN   N/A         42  36  79  CALM    30.40F
#LA PINE DOT    N/A         41  33  73  N2      N/A
#LA PINE 4NW    N/A         40  36  85  CALM    30.37F
#LAVA BUTTE DOT N/A         40  36  85  NE2     N/A
#MT BACHELOR-MIDN/A         37  27  67  NE7     N/A
#SISTERS AIRPOR N/A         40  40  100 CALM    30.17S
#SISTERS ODOT   N/A         40  N/A N/A CALM    N/A
#SISTERS 1NW    N/A         40  36  85  N7      N/A
#SISTERS 3N     N/A         41  34  76  CALM    30.28S
#SUNRIVER       N/A         40  38  92  N2      30.21F
#TUMALO 3W      N/A         38  37  96  E1      30.21F
#WANOGA BUTTE D N/A         45  30  55  W6      N/A

$$

ORZ044-292310-
LOWER COLUMBIA BASIN...OREGON

CITY            SKY/WX      TMP DP  RH  WIND    PRES   REMARKS
HERMISTON       CLOUDY      40  35  82  CALM    30.44F
#BOARDMAN SCHOOLN/A         41  36  82  CALM    30.45F
#BOARDMAN 8SW   N/A         39  38  96  N3      30.45F
#ECHO 8SW       N/A         39  39  100 CALM    30.40F
#IONE SCHOOL    N/A         37  25  61  NE1     30.39F
#IRRIGON 4NW    N/A         41  40  96  CALM    N/A
#UMATILLA SCHOOLN/A         38  37  96  N3      30.47F
#UMATILLA       N/A         41  34  76  N3      30.43F
$$

ORZ507-292310-
NORTHERN FOOTHILLS OF THE BLUES

CITY            SKY/WX      TMP DP  RH  WIND    PRES   REMARKS
PENDLETON AIRPT CLOUDY      36  33  89  CALM    30.39F
#ADAMS 3WNW     N/A         35  34  96  CALM    30.45F
#ATHENA         N/A         34  33  96  CALM    30.48F
#CAYUSE         N/A         35  33  92  CALM    30.45F
#HELIX SCHOOL   N/A         34  33  96  CALM    30.44F
#HELIX 3N       N/A         33  32  96  NE1     30.33F
#HELIX 6SW      N/A         35  34  96  CALM    30.37F
#HOLDMAN 5SE    N/A         36  35  96  CALM    30.39F
#HOLDMAN 6E     N/A         34  33  96  CALM    30.26F
#M-F FERNDALE   N/A         37  36  96  CALM    30.41F
#M-F GROVE ELEM N/A         36  31  82  CALM    30.39F
#M-FREEWATER 5SEN/A         36  33  89  CALM    30.38F
#PENDLETON DNTN N/A         38  33  82  CALM    29.20F
#PDT AQUATIC CTRN/A         38  35  89  CALM    30.40S
#PENDLETON 5NE  N/A         36  35  96  CALM    30.35F
#PDT SUNRIDGE   N/A         36  33  89  CALM    30.42F
#PENDLETON 7NW  N/A         37  33  85  CALM    26.20F
#TUTUILLA       N/A         36  32  85  CALM    30.43F
#UMAPINE 2E     N/A         38  36  92  CALM    30.40F
#WESTON SCHOOL  N/A         32  30  92  NE1     30.36F

$$

ORZ508-292310-
SOUTHERN FOOTHILLS OF THE BLUES

CITY            SKY/WX      TMP DP  RH  WIND    PRES   REMARKS
LEXINGTON       CLOUDY      36  36  100 NE7     30.40F FOG
#AJAX           N/A         34  29  82  N7      30.27F
#CONDON SCHOOL  N/A         33  32  96  CALM    30.27F
#CONDON 5W      N/A         32  31  96  E1      30.28F
#HEPPNER EOC    N/A         35  33  92  W2      30.39F
#HEPPNER 4NE    N/A         32  31  96  N1      30.42F
#LEXINGTON 2SE  N/A         38  34  85  CALM    30.37F
#MIKKALO        N/A         35  35  100 E1      30.38F
#OLEX 4N        N/A         36  36  100 E2      30.40F
#RUGGS 5NE      N/A         33  28  82  W2      30.52S
#RUGGS 2SW      N/A         32  31  96  E1      30.45F

$$

ORZ502-503-292310-
BLUE MOUNTAINS

CITY            SKY/WX      TMP DP  RH  WIND    PRES   REMARKS
MEACHAM         MOCLDY      45  32  60  CALM    30.29F
#BATTLE MTN DOT N/A         41  35  79  CALM    N/A
#HARDMAN 10S    N/A         46  36  68  CALM    30.43F
#HEPPNER 15SE   N/A         37  34  89  W1      30.19F
#LADD CYN SMT   N/A         40  30  67  SE15    N/A    WCI 32
#LADD CREEK ODOTN/A         43  33  67  S8      N/A
#LONG CREEK HS  N/A         48  40  74  CALM    30.23F
#N POWDER DOT   N/A         41  34  76  CALM    N/A
#PIKES PEAK     N/A         36  30  79  CALM    27.99S
#TOLLGATE       N/A         39  32  76  CALM    30.18F
#TROY SCHOOL    N/A         51  37  59  S5      30.24F
#UKIAH          N/A         47  37  68  CALM    30.41F
#WESTON 4E      N/A         33  32  96  CALM    30.33F
$$

ORZ505-292310-
JOHN DAY BASIN

CITY            SKY/WX      TMP DP  RH  WIND    PRES   REMARKS
JOHN DAY        PTCLDY      51  35  54  E8      30.28F
#JOHN DAY KJDY  N/A         51  41  68  E2      30.28F
#DAYVILLE SCHOOLN/A         51  35  54  N3      30.23F
#MITCHELL       N/A         37  37  100 CALM    30.43F
#MONUMENT HS    N/A         51  34  52  CALM    30.28F
#MT. VERNON 5SE N/A         50  36  58  NE2     30.22F
#WINLOCK        N/A         47  38  71  W6      30.34F
$$

ORZ506-292310-
OCHOCO AND JOHN DAY HIGHLANDS

CITY            SKY/WX      TMP DP  RH  WIND    PRES   REMARKS
#BUCK CREEK DOT N/A         46  46  100 SE12    N/A    WCI 40
#HORSE RIDGE DO N/A         42  36  79  NW12    N/A    WCI 35
#KEYES SMT DOT  N/A         36  35  96  NW6     N/A
#PAULINA SCHOOL N/A         51  36  56  CALM    30.22F
#PRAIRIE CITY   N/A         48  32  54  NE3     30.32F
#SENECA         N/A         42  N/A N/A SE2     N/A
#SENECA 9NW     N/A         42  35  76  W1      30.37F
$$

ORZ049-292310-
GRANDE RONDE VALLEY

CITY            SKY/WX      TMP DP  RH  WIND    PRES   REMARKS
LA GRANDE       PTCLDY      46  28  49  S20G24  30.32F WCI 38
#COVE           N/A         46  40  79  S5      30.03S
#COVE SCHOOL    N/A         46  35  65  S5      30.28F
#COVE 6NW       N/A         45  34  65  SE6     30.47F
#ELGIN 3N       N/A         48  30  49  SW15    30.11F WCI 42
#ELGIN 1E       N/A         48  36  63  S1      N/A
#IMBLER SCHOOL  N/A         46  34  63  S7      30.26F
#ISLAND CITY 4N N/A         55  49  80  CALM    30.25F
#LADD CYN DOT   N/A         44  32  62  S15G26  N/A    WCI 37
#UNION 1S       N/A         46  36  68  SE10    30.33F
$$

ORZ050-292310-
WALLOWA COUNTY

CITY            SKY/WX      TMP DP  RH  WIND    PRES   REMARKS
JOSEPH AIRPORT  MOCLDY      39  28  64  CALM    30.33F
#ENTERPRISE AP  N/A         40  29  64  CALM    30.23F
#ENTERPRISE HS  N/A         40  32  73  CALM    30.29F
#IMNAHA SCHOOL  N/A         47  33  58  N7      30.31F
#IMNAHA 10S     N/A         46  32  58  NE2     30.28F
#JOSEPH 3N      N/A         38  35  89  CALM    30.32F
#JOSEPH 3W      N/A         37  25  61  CALM    30.11F
#LOSTINE        N/A         41  32  70  CALM    30.24F
#MT HOWARD 8000 N/A         35  -14 11  CALM    30.27F
#PROMISE 1S     N/A         42  34  73  NE2     30.51F
#SHEEP RDG 7000 N/A         34   3  26  CALM    30.36F
#WALLOWA SCHOOL N/A         43  34  70  CALM    31.42F



$$



USA.gov is the U.S. government's official web portal to all federal, state and local government web resources and services.